www.pogodaiklimat.ru

Погода и климат >> Архив погоды >> Греция >> Kerkyra


ПОГОДА в Kerkyra

  • Прогноз погоды в Kerkyra
  • Монитор погоды в Kerkyra
  • Климат города

АРХИВ ПОГОДЫ в Kerkyra

Время (UTC), дата Ветер
(напр.,м/с)
 
Видим.   Явления Облачность Т
(С)
Тd
(С)
f
(%)
Тe
(С)
Тes
(С)
Комфортность P
(гПа)
Po
(гПа)
Тmin
(С)
Tmax
(С)
R
(мм)
R24
(мм)
S
(см)
15 9.10 СЗ 2
{5}
20 км 1/1 600 м
[Cu hum]
+25.8 +17.6 61 +30 +31 душно 1017.3 1016.9
18 9.10 штиль 0
{5}
10 км 4/0
[Ac und]
+21.2 +16.6 75 +25 +25 комфорт 1017.9 1017.4 +26.0
21 9.10 штиль 0
{1}
10 км 5/1 900 м
[Cu med, cong Ac und]
+19.6 +16.6 83 +22 +22 комфорт 1018.7 1018.2
00 10.10 штиль 0
{1}
10 км 5/0
[Ac und]
+17.4 +16.1 92 +17 +17 1019.0 1018.5
03 10.10 штиль 0
{2}
10 км 1/0
[Ac trans]
+16.6 +15.6 94 +16 +16 1019.0 1018.5
06 10.10 штиль 0
{2}
20 км ясно +16.6 +15.6 94 +16 +17 1018.7 1018.2 +16.2
09 10.10 Ю 2
{3}
20 км 3/3 600 м
[Cu hum]
+23.8 +18.1 70 +28 +33 душно 1019.8 1019.3
12 10.10 С 2
{6}
20 км 3/3 600 м
[Cu hum]
+27.0 +17.5 56 +31 +37 душно 1018.7 1018.3
15 10.10 З 2
{5}
20 км 1/1 600 м
[Cu hum]
+26.6 +16.3 53 +30 +31 душно 1018.7 1018.3
18 10.10 штиль 0
{4}
10 км ясно +20.6 +17.0 80 +24 +24 комфорт 1019.3 1018.7 +27.2
21 10.10 штиль 0
{2}
10 км ясно +18.4 +16.8 90 +19 +19 1020.3 1019.8
00 11.10 штиль 0
{2}
10 км ясно +17.0 +16.0 94 +17 +17 1020.0 1019.5
03 11.10 штиль 0
{2}
10 км ясно +16.2 +15.2 94 +16 +16 1020.0 1019.5
06 11.10 штиль 0
{2}
20 км ясно +16.0 +15.0 94 +16 +16 1020.9 1020.3 +15.2
09 11.10 С 1
{4}
20 км ясно +22.8 +14.0 58 +26 +35 жарко 1020.9 1020.3
12 11.10 З 2
{6}
20 км 3/3 1000 м
[Cu hum]
+25.2 +13.3 48 +27 +33 жарко 1020.6 1020.0
15 11.10 ЮЗ 2
{4}
10 км 5/3 1200 м
[Cu hum Ci]
+25.6 +14.7 51 +28 +29 жарко 1019.3 1018.9
18 11.10 штиль 0
{4}
10 км 6/3 1200 м
[Cu hum Cs]
+20.0 +14.9 72 +22 +22 комфорт 1020.6 1020.0 +25.6
21 11.10 штиль 0
{2}
10 км 6/3 1200 м
[Cu hum Cs]
+18.4 +15.0 81 +19 +19 1021.1 1020.6
00 12.10 штиль 0
{1}
10 км 6/3 1200 м
[Cu hum Cs]
+16.2 +15.5 96 +16 +16 1021.3 1020.7
03 12.10 штиль 0
{1}
10 км 6/3 1200 м
[Cu hum Cs]
+15.8 +15.1 96 +16 +16 1021.3 1020.7
06 12.10 штиль 0
{2}
20 км 1/1 1000 м
[Sc diur, vesp Ci fib]
+15.6 +14.2 91 +15 +16 1021.4 1020.9 +15.2
09 12.10 СВ 1
{4}
20 км 1/1 600 м
[Cu hum Ci fib]
+23.2 +17.4 70 +29 +36 душно 1021.8 1021.3
12 12.10 ЮЗ 2
{5}
20 км 1/1 600 м
[Cu med, cong Ci fib]
+25.2 +15.0 53 +28 +36 жарко 1021.1 1020.6
15 12.10 З 2
{6}
20 км 3/1 600 м
[Cu hum Ac und Ci fib]
+24.2 +17.1 65 +28 +29 душно 1020.5 1019.9
18 12.10 штиль 0
{3}
10 км 1/1 1000 м
[Sc diur, vesp Ci fib]
+20.4 +17.1 81 +23 +23 комфорт 1020.9 1020.3 +26.4
21 12.10 штиль 0
{2}
10 км 4/1 1050 м
[Sc diur, vesp Ac und]
+17.6 +15.9 90 +18 +18 1021.3 1020.7
00 13.10 штиль 0
{3}
10 км 3/1 600 м
[Sc diur, vesp Ac und]
+16.2 +15.2 94 +16 +16 1021.3 1020.7
03 13.10 штиль 0
{2}
10 км 4/4 600 м
[Sc Ac und]
+15.4 +14.3 93 +15 +15 1020.9 1020.3
06 13.10 штиль 0
{2}
20 км 1/1 1500 м
[Sc diur, vesp]
+15.8 +14.7 93 +16 +16 1020.7 1020.2 +14.8
09 13.10 Ю 2
{3}
20 км 1/1 600 м
[Cu hum]
+24.4 +14.7 55 +27 +34 жарко 1020.9 1020.3
12 13.10 Ю 2
{5}
20 км 1/1 600 м
[Cu hum]
+25.6 +16.6 58 +29 +36 душно 1020.2 1019.8
15 13.10 З 2
{4}
20 км 5/1 750 м
[Cu hum Ac und]
+24.8 +16.8 61 +28 +29 жарко 1019.9 1019.4
18 13.10 штиль 0
{2}
10 км 1/0
[Ac trans]
+20.6 +17.0 80 +24 +24 комфорт 1020.2 1019.6 +26.0
21 13.10 штиль 0
{1}
10 км ясно +17.8 +15.4 86 +18 +18 1020.9 1020.3
00 14.10 штиль 0
{1}
10 км ясно +16.4 +15.4 94 +16 +16 1020.9 1020.3
03 14.10 штиль 0
{1}
10 км ясно +15.4 +14.7 96 +15 +15 1019.9 1019.4
06 14.10 штиль 0
{2}
20 км ясно +15.2 +14.5 96 +15 +15 1020.0 1019.5 +15.0
09 14.10 Ю 2
{4}
20 км 1/1 600 м
[Cu hum]
+22.4 +13.5 57 +25 +32 комфорт 1020.3 1019.8
12 14.10 Ю 4
{6}
20 км 1/1 600 м
[Cu hum]
+24.2 +14.1 53 +27 +32 жарко 1019.1 1018.6
15 14.10 ЮВ 3
{6}
20 км 5/1 600 м
[Cu hum Cs]
+24.6 +14.6 54 +27 +28 жарко 1018.0 1017.5
18 14.10 штиль 0
{3}
10 км 6/4 600 м
[Cu hum Ac trans Cs]
+19.4 +15.0 76 +21 +21 комфорт 1019.0 1018.5 +24.6
21 14.10 штиль 0
{2}
10 км 5/4 600 м
[Cu hum Cs]
+17.2 +14.8 86 +17 +17 1019.0 1018.5
00 15.10 штиль 0
{2}
10 км 5/4 600 м
[Cu hum Cs]
+15.4 +14.3 93 +15 +15 1018.7 1018.2
03 15.10 штиль 0
{2}
10 км 5/4 600 м
[Cu hum Cs]
+15.0 +13.9 93 +15 +15 1018.3 1017.8
06 15.10 штиль 0
{2}
20 км 3/1 1000 м
[Cu hum Ci fib]
+14.8 +12.6 87 +14 +15 1017.9 1017.4 +14.2
09 15.10 Ю 3
{4}
20 км 3/1 1000 м
[Cu hum Ci fib]
+24.0 +15.8 60 +27 +33 жарко 1018.0 1017.5
12 15.10 Ю 5
{8}
20 км 3/1 600 м
[Cu hum Ci fib]
+25.2 +16.1 57 +29 +32 душно 1017.5 1017.1
15 15.10 Ю 2
{7}
10 км 4/1 600 м
[Cu hum Ac trans Ci fib]
+24.6 +17.3 64 +29 +29 душно 1017.5 1017.0
18 15.10 штиль 0
{3}
10 км 5/1 750 м
[Cu hum Ac trans Ci sp]
+20.2 +16.9 81 +23 +23 комфорт 1018.0 1017.5 +26.0
21 15.10 штиль 0
{2}
10 км 4/1 750 м
[Cu hum Ci sp]
+17.8 +15.8 88 +18 +18 1019.1 1018.6
00 16.10 штиль 0
{2}
10 км 4/3 600 м
[Cu hum Ci sp]
+16.0 +15.0 94 +16 +16 1019.3 1018.7
03 16.10 штиль 0
{2}
10 км 4/3 600 м
[Cu hum Ci fib]
+15.2 +14.5 96 +15 +15 1019.1 1018.6
06 16.10 штиль 0
{2}
10 км 4/1 600 м
[Cu hum Ac trans Ci fib]
+15.0 +14.3 96 +15 +15 1019.5 1019.0 +14.8
09 16.10 штиль 0
{2}
10 км 3/1 600 м
[Cu hum Ci fib]
+24.2 +17.1 65 +28 +36 душно 1020.2 1019.6

 

Местоположение метеостанции Kerkyra (Греция): широта 39.62 долгота 19.92 высота над уровнем моря 4 м.

В архиве по умолчанию представлена погода в Kerkyra за последнюю неделю. Архивные данные за месяц целиком и за предыдущие месяцы, начиная с января 2011 года, Вы можете получить, выбрав интересующий диапазон дат из раскрывающегося списка и нажав кнопку "Ввод!".


*Определитесь, кто Вы:
робот инопланетянин человек

Внимание! Время в таблицах - всемирное. Для получения местного времени необходимо прибавить поправку, которая в Kerkyra равна 2 ч.

Смотрите также архив погоды в соседних городах и на ближайших метеорологических станциях:

Погода в Saranda (Албания) (30 км)
Погода в Gjirokastra (Албания) (55 км)
Погода в Ioannina (Греция) (78 км)
Погода в Vlore (Албания) (102 км)
Погода в Sazan Island (Албания) (112 км)
Погода в Korca (Албания) (131 км)
Погода в Qyteti Stalin (Албания) (131 км)
Погода в Aktion (Греция) (133 км)
Погода в Otranto (Италия) (134 км)
Погода в S. maria di Leuca (Италия) (136 км)

Пояснения к столбцам:

Ветер - указаны скорость ветра в м/с - средняя за 10 мин, порывы в срок и между сроками (в фигурных скобках) и направление, откуда дует ветер: С - северный, СВ - северо-восточный, В - восточный, ЮВ - юго-восточный, Ю - южный, ЮЗ - юго-западный, З - западный, СЗ - северо-западный.
Видимость - горизонтальная дальность видимости в метрах или километрах. При видимости от 1 до 10 км при отсутствии осадков обычно наблюдается дымка, при ухудшении видимости до 1 км и менее - туман. В сухую погоду видимость может ухудшаться дымом, пылью или мглою.
Явления - указаны атмосферные явления, наблюдавшиеся в срок или в последний час перед сроком; фигурными скобками обозначены явления, наблюдавшиеся между сроками (за 1-3 часа до срока); квадратными скобками обозначены град или гололедные отложения с указанием их диаметра в мм.
Облачность - указаны через наклонную черту общая и нижняя облачность в баллах и высота нижней границы облаков в метрах; квадратными скобками обозначены формы облаков: Ci - перистые, Cs - перисто-слоистые, Cc - перисто-кучевые, Ac - высококучевые, As - высокослоистые, Sc - слоисто-кучевые, Ns - слоисто-дождевые, Cu - кучевые, Cb - кучево-дождевые. Подробнее классификацию облаков см. в Атласе облаков (PDF).
T - Температура воздуха - температура, измеренная на высоте 2 м над землей.
Td - Температура точки росы - температура, при понижении до которой содержащийся в воздухе водяной пар достигнет насыщения.
f - Относительная влажность воздуха - влажноcть воздуха, измеренная на высоте 2 м над землей.
Te - Эффективная температура - температура, которую ощущает одетый по сезону человек в тени. Характеристика душности погоды. При расчете учитывается влияние влажности воздуха и скорости ветра на теплоощущения человека.
Tes - Эффективная температура на солнце - температура, которую ощущает человек, с поправкой на солнечный нагрев. Характеристика знойности погоды. Зависит от высоты солнца над горизонтом, облачности и скорости ветра. Ночью, в пасмурную погоду, а также при ветре 12 м/с и более поправка равна нулю.
P - Атмосферное давление - приведенное к уровню моря атмосферное давление.
Po - Атмосферное давление - измеренное на уровне метеостанции атмосферное давление.
Tmin - Минимальная температура - минимум температуры воздуха на высоте 2 м над землей.
Tmax - Максимальная температура - максимум температуры воздуха на высоте 2 м над землей.
R - Количество осадков - Количество выпавших осадков за период времени, мм. При наведении курсора мыши на число - период времени, за который выпало указанное количество осадков.
R24 - Количество осадков - Количество выпавших осадков за 24 часа, мм.
S - Снежный покров - Высота снежного покрова, см. При наведении курсора мыши на число - состояние снежного покрова и степень покрытия местности в баллах.